| time (UTC) | temp C | wind direction | speed KPH | gust KPH | rain 1hr cm | rain 24hr cm | rain mn cm | humidity % | barometer mb |
| 20260508035731 | 11 | 76 | 4.8 | 11.3 | 0.00 | 0.00 | 0.69 | 61 | |
| 20260508035051 | 11 | 126 | 8.0 | 32.2 | 0.00 | 0.00 | 0.69 | 53 | |
| 20260508034413 | 11 | 22 | 11.3 | 35.4 | 0.00 | 0.00 | 0.69 | 57 | |
| 20260508033731 | 10 | 337 | 19.3 | 35.4 | 0.00 | 0.00 | 0.69 | 65 | |
| 20260508033051 | 10 | 321 | 11.3 | 25.7 | 0.00 | 0.00 | 0.66 | 73 | |
| 20260508032412 | 10 | 272 | 4.8 | 27.4 | 0.00 | 0.00 | 0.64 | 75 | |
| 20260508031731 | 10 | 271 | 16.1 | 29.0 | 0.00 | 0.00 | 0.61 | 73 | |
| 20260508030412 | 10 | 272 | 11.3 | 33.8 | 0.00 | 0.00 | 0.58 | 73 | |
| 20260508025732 | 11 | 296 | 11.3 | 33.8 | 0.00 | 0.00 | 0.56 | 67 | |
| 20260508024411 | 11 | 171 | 6.4 | 9.7 | 0.00 | 0.00 | 0.56 | 67 | |
| 20260508023731 | 11 | 176 | 4.8 | 11.3 | 0.00 | 0.00 | 0.56 | 69 | |
| 20260508023051 | 11 | 176 | 4.8 | 11.3 | 0.00 | 0.00 | 0.56 | 68 | |
| 20260508021731 | 11 | 149 | 4.8 | 9.7 | 0.00 | 0.00 | 0.56 | 63 | |
| 20260508021051 | 11 | 178 | 3.2 | 9.7 | 0.00 | 0.00 | 0.56 | 66 | |
| 20260508020411 | 12 | 120 | 6.4 | 11.3 | 0.00 | 0.00 | 0.56 | 63 | |
| 20260508015731 | 12 | 103 | 6.4 | 9.7 | 0.00 | 0.00 | 0.56 | 68 | |
| 20260508015051 | 12 | 106 | 6.4 | 11.3 | 0.00 | 0.00 | 0.56 | 64 | |
| 20260508013731 | 12 | 13 | 11.3 | 19.3 | 0.00 | 0.00 | 0.56 | 67 | |
| 20260508013051 | 11 | 2 | 12.9 | 29.0 | 0.00 | 0.00 | 0.56 | 68 | |
| 20260508011731 | 12 | 326 | 11.3 | 17.7 | 0.00 | 0.00 | 0.51 | 52 | |
| 20260508011051 | 12 | 193 | 8.0 | 14.5 | 0.00 | 0.00 | 0.38 | 59 | |
| 20260508010411 | 11 | 196 | 6.4 | 12.9 | 0.00 | 0.00 | 0.36 | 62 | |
| 20260508005731 | 11 | 205 | 4.8 | 19.3 | 0.00 | 0.00 | 0.36 | 67 | |
| 20260508004411 | 11 | 245 | 6.4 | 16.1 | 0.00 | 0.00 | 0.33 | 56 | |
| 20260508003731 | 11 | 217 | 6.4 | 17.7 | 0.00 | 0.00 | 0.30 | 59 | |
| 20260508003051 | 12 | 215 | 9.7 | 43.5 | 0.00 | 0.00 | 0.28 | 56 | |
| 20260508002411 | 14 | 340 | 25.7 | 43.5 | 0.00 | 0.00 | 0.00 | 48 | |
| 20260508001731 | 16 | 351 | 8.0 | 14.5 | 0.00 | 0.00 | 0.00 | 38 | |
| 20260508000412 | 16 | 267 | 3.2 | 9.7 | 0.00 | 0.00 | 0.00 | 45 | |
| 20260507232412 | 17 | 240 | 12.9 | 17.7 | 0.00 | 0.00 | 0.00 | 35 | |
| 20260507230411 | 17 | 259 | 8.0 | 20.9 | 0.00 | 0.00 | 0.00 | 32 | |
| 20260507225731 | 18 | 230 | 12.9 | 20.9 | 0.00 | 0.00 | 0.00 | 32 | |
| 20260507225051 | 17 | 240 | 12.9 | 25.7 | 0.00 | 0.00 | 0.00 | 32 | |
| 20260507224411 | 18 | 237 | 12.9 | 19.3 | 0.00 | 0.00 | 0.00 | 32 | |
| 20260507223051 | 17 | 225 | 11.3 | 17.7 | 0.00 | 0.00 | 0.00 | 34 | |
| 20260507221732 | 17 | 204 | 8.0 | 16.1 | 0.00 | 0.00 | 0.00 | 33 | |
| 20260507215732 | 13 | 288 | 8.0 | 19.3 | 0.00 | 0.00 | 0.00 | 50 | |
| 20260507215051 | 13 | 276 | 9.7 | 32.2 | 0.00 | 0.00 | 0.00 | 52 | |
| 20260507214413 | 13 | 270 | 12.9 | 32.2 | 0.00 | 0.00 | 0.00 | 49 | |
| 20260507213051 | 14 | 264 | 12.9 | 32.2 | 0.00 | 0.00 | 0.00 | 46 | |
| 20260507212411 | 16 | 243 | 14.5 | 24.1 | 0.00 | 0.00 | 0.00 | 38 | |
| 20260507211731 | 16 | 232 | 12.9 | 19.3 | 0.00 | 0.00 | 0.00 | 35 | |
| 20260507211051 | 17 | 235 | 11.3 | 17.7 | 0.00 | 0.00 | 0.00 | 34 | |
| 20260507210411 | 17 | 243 | 9.7 | 14.5 | 0.00 | 0.00 | 0.00 | 32 | |
| 20260507205732 | 18 | 229 | 8.0 | 12.9 | 0.00 | 0.00 | 0.00 | 30 | |
| 20260507203732 | 19 | 223 | 9.7 | 16.1 | 0.00 | 0.00 | 0.00 | 26 | |
| 20260507203051 | 19 | 206 | 8.0 | 14.5 | 0.00 | 0.00 | 0.00 | 29 | |
| 20260507202411 | 18 | 200 | 8.0 | 24.1 | 0.00 | 0.00 | 0.00 | 29 | |
| 20260507201731 | 20 | 209 | 11.3 | 24.1 | 0.00 | 0.00 | 0.00 | 27 | |
| 20260507201051 | 19 | 206 | 9.7 | 16.1 | 0.00 | 0.00 | 0.00 | 29 | |
| 20260507200411 | 19 | 226 | 9.7 | 16.1 | 0.00 | 0.00 | 0.00 | 28 | |
| 20260507195051 | 18 | 173 | 4.8 | 14.5 | 0.00 | 0.00 | 0.00 | 29 | |
| 20260507194411 | 19 | 201 | 8.0 | 14.5 | 0.00 | 0.00 | 0.00 | 28 | |
| 20260507193731 | 18 | 226 | 8.0 | 16.1 | 0.00 | 0.00 | 0.00 | 27 | |
| 20260507193051 | 18 | 232 | 9.7 | 16.1 | 0.00 | 0.00 | 0.00 | 29 | |
| 20260507191731 | 18 | 195 | 8.0 | 17.7 | 0.00 | 0.00 | 0.00 | 32 | |
| 20260507191051 | 18 | 209 | 8.0 | 17.7 | 0.00 | 0.00 | 0.00 | 30 | |
| 20260507190411 | 18 | 187 | 6.4 | 17.7 | 0.00 | 0.00 | 0.00 | 29 | |
| 20260507185731 | 18 | 222 | 9.7 | 19.3 | 0.00 | 0.00 | 0.00 | 32 | |
| 20260507185051 | 17 | 207 | 8.0 | 16.1 | 0.00 | 0.00 | 0.00 | 33 | |
| 20260507184412 | 17 | 231 | 9.7 | 20.9 | 0.00 | 0.00 | 0.00 | 34 | |
| 20260507183731 | 17 | 204 | 9.7 | 20.9 | 0.00 | 0.00 | 0.00 | 32 | |
| 20260507183051 | 18 | 222 | 11.3 | 17.7 | 0.00 | 0.00 | 0.00 | 33 | |
| 20260507182412 | 18 | 220 | 9.7 | 17.7 | 0.00 | 0.00 | 0.00 | 30 | |
| 20260507181731 | 18 | 244 | 9.7 | 17.7 | 0.00 | 0.00 | 0.00 | 32 | |
| 20260507181051 | 17 | 238 | 9.7 | 17.7 | 0.00 | 0.00 | 0.00 | 33 | |
| 20260507180411 | 17 | 195 | 9.7 | 16.1 | 0.00 | 0.00 | 0.00 | 33 | |
| 20260507175731 | 17 | 237 | 8.0 | 19.3 | 0.00 | 0.00 | 0.00 | 33 | |
| 20260507175051 | 17 | 205 | 8.0 | 19.3 | 0.00 | 0.00 | 0.00 | 33 | |
| 20260507174411 | 17 | 198 | 11.3 | 16.1 | 0.00 | 0.00 | 0.00 | 32 | |
| 20260507173731 | 16 | 213 | 9.7 | 16.1 | 0.00 | 0.00 | 0.00 | 33 | |
| 20260507173051 | 16 | 222 | 8.0 | 19.3 | 0.00 | 0.00 | 0.00 | 34 | |
| 20260507171731 | 16 | 188 | 8.0 | 16.1 | 0.00 | 0.00 | 0.00 | 34 | |
| 20260507171051 | 16 | 211 | 8.0 | 17.7 | 0.00 | 0.00 | 0.00 | 34 | |
| 20260507170411 | 16 | 197 | 8.0 | 19.3 | 0.00 | 0.00 | 0.00 | 34 | |
| 20260507165731 | 16 | 227 | 11.3 | 19.3 | 0.00 | 0.00 | 0.00 | 34 | |
| 20260507164411 | 16 | 193 | 9.7 | 17.7 | 0.00 | 0.00 | 0.00 | 36 | |
| 20260507163731 | 16 | 202 | 8.0 | 12.9 | 0.00 | 0.00 | 0.00 | 35 | |
| 20260507163051 | 16 | 235 | 8.0 | 12.9 | 0.00 | 0.00 | 0.00 | 35 | |
| 20260507162411 | 15 | 199 | 4.8 | 12.9 | 0.00 | 0.00 | 0.00 | 37 | |
| 20260507161051 | 13 | 235 | 8.0 | 12.9 | 0.00 | 0.00 | 0.00 | 40 | |
| 20260507160411 | 13 | 236 | 8.0 | 14.5 | 0.00 | 0.00 | 0.00 | 41 | |
| 20260507155731 | 13 | 240 | 6.4 | 12.9 | 0.00 | 0.00 | 0.00 | 44 | |
| 20260507155051 | 13 | 232 | 8.0 | 12.9 | 0.00 | 0.00 | 0.00 | 45 | |
| 20260507154411 | 12 | 235 | 8.0 | 14.5 | 0.00 | 0.00 | 0.00 | 46 | |
| 20260507153051 | 12 | 232 | 6.4 | 9.7 | 0.00 | 0.00 | 0.00 | 46 | |
| 20260507152411 | 13 | 237 | 3.2 | 4.8 | 0.00 | 0.00 | 0.00 | 45 | |
| 20260507151731 | 13 | 312 | 1.6 | 6.4 | 0.00 | 0.00 | 0.00 | 39 | |
| 20260507151051 | 13 | 310 | 3.2 | 11.3 | 0.00 | 0.00 | 0.00 | 40 | |
| 20260507150411 | 13 | 309 | 4.8 | 11.3 | 0.00 | 0.00 | 0.00 | 39 | |
| 20260507145732 | 13 | 309 | 6.4 | 11.3 | 0.00 | 0.00 | 0.00 | 39 | |
| 20260507143051 | 12 | 315 | 9.7 | 16.1 | 0.00 | 0.00 | 0.00 | 42 | |
| 20260507142411 | 11 | 318 | 9.7 | 16.1 | 0.00 | 0.00 | 0.00 | 44 | |
| 20260507141731 | 11 | 319 | 8.0 | 11.3 | 0.00 | 0.00 | 0.00 | 45 | |
| 20260507141051 | 11 | 334 | 8.0 | 12.9 | 0.00 | 0.00 | 0.00 | 46 | |
| 20260507140411 | 10 | 356 | 6.4 | 16.1 | 0.00 | 0.00 | 0.00 | 47 | |
| 20260507135731 | 10 | 351 | 11.3 | 19.3 | 0.00 | 0.00 | 0.00 | 46 | |
| 20260507135051 | 10 | 340 | 12.9 | 19.3 | 0.00 | 0.00 | 0.00 | 48 | |
| 20260507134411 | 10 | 341 | 12.9 | 20.9 | 0.00 | 0.00 | 0.00 | 48 | |
| 20260507133731 | 10 | 349 | 12.9 | 19.3 | 0.00 | 0.00 | 0.00 | 47 | |
| 20260507133051 | 8 | 345 | 14.5 | 20.9 | 0.00 | 0.00 | 0.00 | 50 | |
| 20260507132411 | 8 | 342 | 14.5 | 20.9 | 0.00 | 0.00 | 0.00 | 50 | |
| 20260507131731 | 8 | 332 | 11.3 | 14.5 | 0.00 | 0.00 | 0.00 | 51 | |
| 20260507131050 | 8 | 330 | 9.7 | 12.9 | 0.00 | 0.00 | 0.00 | 53 | |
| 20260507130410 | 8 | 322 | 9.7 | 14.5 | 0.00 | 0.00 | 0.00 | 54 | |
| 20260507125730 | 8 | 323 | 9.7 | 14.5 | 0.00 | 0.00 | 0.00 | 53 | |
| 20260507125050 | 8 | 319 | 8.0 | 12.9 | 0.00 | 0.00 | 0.00 | 52 | |
| 20260507124410 | 9 | 310 | 6.4 | 12.9 | 0.00 | 0.00 | 0.00 | 52 | |
| 20260507123730 | 8 | 308 | 6.4 | 12.9 | 0.00 | 0.00 | 0.00 | 55 | |
| 20260507122410 | 8 | 281 | 6.4 | 11.3 | 0.00 | 0.00 | 0.00 | 61 | |
| 20260507121050 | 8 | 293 | 4.8 | 14.5 | 0.00 | 0.00 | 0.00 | 60 | |
| 20260507120410 | 8 | 279 | 3.2 | 11.3 | 0.00 | 0.00 | 0.00 | 56 | |
| 20260507115730 | 9 | 286 | 3.2 | 9.7 | 0.00 | 0.00 | 0.00 | 52 | |
| 20260507115050 | 8 | 305 | 4.8 | 9.7 | 0.00 | 0.00 | 0.00 | 51 | |
| 20260507114410 | 8 | 278 | 3.2 | 9.7 | 0.00 | 0.00 | 0.00 | 50 | |
| 20260507113730 | 8 | 298 | 4.8 | 8.0 | 0.00 | 0.00 | 0.00 | 49 | |
| 20260507113050 | 8 | 298 | 4.8 | 8.0 | 0.00 | 0.00 | 0.00 | 49 | |
| 20260507110410 | 8 | 280 | 1.6 | 8.0 | 0.00 | 0.00 | 0.00 | 47 | |
| 20260507105730 | 8 | 305 | 4.8 | 9.7 | 0.00 | 0.00 | 0.00 | 47 | |
| 20260507105050 | 8 | 272 | 3.2 | 14.5 | 0.00 | 0.00 | 0.00 | 48 | |
| 20260507103731 | 9 | 338 | 9.7 | 12.9 | 0.00 | 0.00 | 0.00 | 47 | |
| 20260507103051 | 10 | 346 | 9.7 | 12.9 | 0.00 | 0.00 | 0.00 | 47 | |
| 20260507102411 | 10 | 349 | 9.7 | 17.7 | 0.00 | 0.00 | 0.00 | 48 | |
| 20260507101731 | 11 | 315 | 8.0 | 17.7 | 0.00 | 0.00 | 0.00 | 49 | |
| 20260507101051 | 11 | 356 | 4.8 | 9.7 | 0.00 | 0.00 | 0.00 | 47 | |
| 20260507100411 | 11 | 353 | 3.2 | 9.7 | 0.00 | 0.00 | 0.00 | 44 | |
| 20260507095731 | 11 | 311 | 4.8 | 11.3 | 0.00 | 0.00 | 0.00 | 52 | |
| 20260507095051 | 12 | 285 | 4.8 | 17.7 | 0.00 | 0.00 | 0.00 | 54 | |
| 20260507094411 | 12 | 242 | 6.4 | 24.1 | 0.00 | 0.00 | 0.00 | 52 | |
| 20260507093731 | 13 | 241 | 9.7 | 24.1 | 0.00 | 0.00 | 0.00 | 47 | |
| 20260507092411 | 12 | 286 | 8.0 | 16.1 | 0.00 | 0.00 | 0.00 | 45 | |
| 20260507091731 | 12 | 296 | 4.8 | 16.1 | 0.00 | 0.00 | 0.00 | 45 | |
| 20260507091051 | 12 | 305 | 9.7 | 16.1 | 0.00 | 0.00 | 0.00 | 44 | |
| 20260507090411 | 12 | 300 | 8.0 | 16.1 | 0.00 | 0.00 | 0.00 | 45 | |
| 20260507085051 | 12 | 306 | 9.7 | 14.5 | 0.00 | 0.00 | 0.00 | 46 | |
| 20260507083731 | 12 | 315 | 9.7 | 19.3 | 0.00 | 0.00 | 0.00 | 47 | |
| 20260507083051 | 12 | 319 | 11.3 | 19.3 | 0.00 | 0.00 | 0.00 | 47 | |
| 20260507082411 | 11 | 322 | 11.3 | 17.7 | 0.00 | 0.00 | 0.00 | 49 | |
| 20260507081731 | 12 | 331 | 12.9 | 22.5 | 0.00 | 0.00 | 0.00 | 48 | |
| 20260507080411 | 13 | 341 | 17.7 | 29.0 | 0.00 | 0.00 | 0.00 | 44 | |
| 20260507075731 | 13 | 354 | 16.1 | 29.0 | 0.00 | 0.00 | 0.00 | 43 | |
| 20260507075051 | 13 | 301 | 11.3 | 29.0 | 0.00 | 0.00 | 0.00 | 40 | |
| 20260507074411 | 11 | 15 | 8.0 | 16.1 | 0.00 | 0.00 | 0.00 | 51 | |
| 20260507073731 | 12 | 17 | 9.7 | 16.1 | 0.00 | 0.00 | 0.00 | 47 | |
| 20260507073051 | 13 | 270 | 6.4 | 16.1 | 0.00 | 0.00 | 0.00 | 43 | |
| 20260507071051 | 12 | 266 | 6.4 | 14.5 | 0.00 | 0.00 | 0.00 | 49 | |
| 20260507065731 | 12 | 259 | 4.8 | 12.9 | 0.00 | 0.00 | 0.00 | 50 | |
| 20260507065051 | 12 | 267 | 6.4 | 14.5 | 0.00 | 0.00 | 0.00 | 50 | |
| 20260507064411 | 12 | 265 | 6.4 | 14.5 | 0.00 | 0.00 | 0.00 | 50 | |
| 20260507063731 | 12 | 255 | 8.0 | 12.9 | 0.00 | 0.00 | 0.00 | 50 | |
| 20260507063051 | 12 | 254 | 6.4 | 12.9 | 0.00 | 0.00 | 0.00 | 50 | |
| 20260507062411 | 12 | 263 | 6.4 | 12.9 | 0.00 | 0.00 | 0.00 | 51 | |
| 20260507061731 | 12 | 257 | 4.8 | 11.3 | 0.00 | 0.00 | 0.00 | 51 | |
| 20260507061051 | 11 | 240 | 6.4 | 11.3 | 0.00 | 0.00 | 0.00 | 52 | |
| 20260507060411 | 11 | 241 | 6.4 | 11.3 | 0.00 | 0.00 | 0.00 | 54 | |
| 20260507055731 | 11 | 234 | 6.4 | 11.3 | 0.00 | 0.00 | 0.00 | 52 | |
| 20260507054411 | 12 | 243 | 6.4 | 12.9 | 0.00 | 0.00 | 0.00 | 49 | |
| 20260507053731 | 12 | 239 | 8.0 | 12.9 | 0.00 | 0.00 | 0.00 | 49 | |
| 20260507053051 | 12 | 239 | 6.4 | 12.9 | 0.00 | 0.00 | 0.00 | 47 | |
| 20260507052411 | 13 | 237 | 6.4 | 14.5 | 0.00 | 0.00 | 0.00 | 45 | |
| 20260507051731 | 13 | 245 | 6.4 | 16.1 | 0.00 | 0.00 | 0.00 | 42 | |
| 20260507051051 | 14 | 259 | 8.0 | 17.7 | 0.00 | 0.00 | 0.00 | 39 | |
| 20260507050411 | 15 | 265 | 8.0 | 17.7 | 0.00 | 0.00 | 0.00 | 38 | |
| 20260507045731 | 15 | 261 | 9.7 | 17.7 | 0.00 | 0.00 | 0.00 | 37 | |
| 20260507045051 | 15 | 270 | 9.7 | 19.3 | 0.00 | 0.00 | 0.00 | 37 | |
| 20260507044411 | 15 | 267 | 8.0 | 20.9 | 0.00 | 0.00 | 0.00 | 37 | |
| 20260507043731 | 15 | 265 | 9.7 | 20.9 | 0.00 | 0.00 | 0.00 | 37 | |
| 20260507043051 | 15 | 268 | 9.7 | 19.3 | 0.00 | 0.00 | 0.00 | 36 | |
| 20260507041731 | 15 | 255 | 8.0 | 17.7 | 0.00 | 0.00 | 0.00 | 37 | |
| 20260507041051 | 15 | 268 | 9.7 | 17.7 | 0.00 | 0.00 | 0.00 | 36 | |
| 20260507040411 | 15 | 260 | 8.0 | 16.1 | 0.00 | 0.00 | 0.00 | 36 |